Weather in Sengiley

Russia / Ulyanovsk Oblast     53°57′43″N   48°47′26″E
temp.,
°C
wind,
m/s
gust,
m/s
humid.,
%
clouds,
%
prec.,
mm/h
press.,
hPa
HPBL,
m
11 may, tue
tue1101:00+14e237297 0.0 101926
04:00+14e227188 0.0 102123
07:00+14ese2870100 0.0 1022211
10:00+18se4656100 0.0 1023422
13:00+20ese3649100 0.0 1024963
16:00+21ese474657 0.0 10251545
19:00+18sse236641 0.0 102578
22:00+13wnw228829 0.0 102725
12 may, wed
wed1201:00+13nnw228579 0.0 102728
04:00+13ese228281 0.0 102618
07:00+14ese2575100 0.0 1027138
10:00+17ese5961100 0.0 1027466
13:00+20se594734 0.0 10261353
16:00+21ese68436 0.0 10261492
19:00+17s376184 0.0 1026225
22:00+14sse36715 0.0 102686
13 may, thu
thu1301:00+13se22739 0.0 102623
04:00+12e337013 0.0 102537
07:00+13ese496999 0.0 1025199
10:00+17ese475892 0.0 1025315
13:00+20se474978 0.0 1025620
16:00+22ese61053100 0.0 1023947
19:00+20sse6125998 0.0 1022365
22:00+16se4106694 0.0 1022166
14 may, fri
fri1401:00+14sse48645 0.0 1022120
04:00+13sse411595 0.0 1022173
07:00+15sse511605 0.0 1022224
10:00+20s68485 0.0 1022334
13:00+24s793827 0.0 1022775
16:00+25s610399 0.0 10221130
19:00+22s5105186 0.0 1021259
22:00+18s511498 0.1 1022195
15 may, sat
sat1501:00+16s48555 0.0 1021115
04:00+15sse45565 0.0 102157
07:00+16sse49605 0.0 1022167
10:00+21s57435 0.0 1021309
13:00+25s683430 0.0 1021880
16:00+26s583385 0.0 10201549
19:00+22sse3653100 0.0 101998
22:00+18s33545 0.0 101925